OBJECT H

基本信息
目录编号:
57173
目录名称:
OBJECT H
国际标识:
2023-091H
轨道中心:
EARTH
物体状态:
在轨
发射日期:
2023-06-27 UTC
国别:
(TBD)
轨道信息
数据来源: 国际轨道数据
星历时间: 2026-09-04T03:49:20+0800
半长轴: 6853.579km
偏心率: 0.0009273
轨道倾角: 97.497°
近地点辐角: 185.810°
升交点赤经: 310.709°
平近点角: 174.303°
近地点: 469.086km
远地点: 481.798km
周期: 94.110分钟
每日圈数: 15.301243
详细信息
发射场:
VOSTO
轨道高度:
LEO
数据来源:
AOE Integration Group
参考系:
TEME
时间系统:
UTC
历元类型:
SGP4
2D轨道图
3D轨道图
轨道高度分析图
轨道倾角分析图
轨道综合分析图
查看轨道综合分析图